Zurück zum Katalog

COSMOS 1038

AktivMilitärLEO
NORAD 11047·PAYLOAD·🇷🇺 Russia

Gestartet Oct 4, 1978 von Plesetsk Cosmodrome

Loading…

Nächste Überflüge (nächste 24 Stunden)

TLE

AktuellSource: Space-Track

Epoche: Sep 14, 2026, 03:31 UTC

1 11047U 78091E   26257.14670940 -.00000026  00000-0 -71820-4 0  9993
2 11047  74.0368  36.3957 0006215 358.6593 174.1488 12.45935562771919

Verfolge COSMOS 1038 in Echtzeit mit AllMySat

Download on the App Store